Regional Weather Roundup
Issued by NWS

Home | Current Version | Previous Version | Text Only | Print | Product List | Glossary Off
Versions: 1 2 3 4 5 6 7 8 9 10 11 12 13 14 15 16 17 18 19 20 21 22 23 24 25 26 27 28 29 30 31 32 33 34 35 36 37 38 39 40 41 42 43 44 45 46 47 48 49 50

000
ASUS43 KIND 232009
RWRIN

WEATHER ROUNDUP FOR INDIANA
NATIONAL WEATHER SERVICE INDIANAPOLIS IN
400 PM EDT TUE SEP 23 2014

NOTE: "FAIR" INDICATES FEW OR NO CLOUDS BELOW 12,000 FEET WITH NO
SIGNIFICANT WEATHER AND/OR OBSTRUCTIONS TO VISIBILITY.

* - STATION DOES NOT REPORT WEATHER SUCH AS PRECIPITATION OR FOG.

+ - STATION NOT QUALITY CONTROLLED BY THE NATIONAL WEATHER SERVICE.
    USE DATA WITH CAUTION...ESPECIALLY DEWPOINT AND RELATIVE
    HUMIDITY OBSERVATIONS.

INZ001>003-010>013-019-020-232100-
NORTHWEST INDIANA

CITY           SKY/WX    TMP DP  RH WIND       PRES   REMARKS
GARY /AIRPORT/ MOSUNNY   73  50  43 MISG      30.32F
KNOX *+        SUNNY     71  48  44 CALM      30.32F
LA PORTE +     SUNNY     70  47  42 W3        30.33F
MICHIGAN CITY+ SUNNY     68  46  45 N5        30.33F
MONTICELLO +   SUNNY     72  50  46 N3        30.30F
RENSSELAER +   SUNNY     72  46  40 S3        30.31F
VALPARAISO     SUNNY     71  47  42 CALM      30.32F

$$

LMZ046-743>745-232100-
SOUTHERN LAKE MICHIGAN

STATION/POSITION TIME  TEMP WIND        PRES
                       AIR  DIR/SP/G
                 (UTC) (F)  (DEG/KT/KT) (MB)

$$

INZ004-005-014>016-021>024-232100-
NORTH CENTRAL INDIANA

CITY           SKY/WX    TMP DP  RH WIND       PRES   REMARKS
ELKHART        SUNNY     72  48  43 CALM      30.33F
GOSHEN         SUNNY     71  49  45 CALM      30.32F
LOGANSPORT +   SUNNY     70  46  43 NE7       30.32F
PERU/GRISSOM   SUNNY     71  51  49 NE5       30.31F
ROCHESTER +    SUNNY     73  46  38 CALM      30.33S
SOUTH BEND     SUNNY     73  48  41 VRB3      30.33F
WARSAW +       SUNNY     70  50  49 CALM      30.33S

$$

INZ006>009-017-018-025>027-232100-
NORTHEAST INDIANA

CITY           SKY/WX    TMP DP  RH WIND       PRES   REMARKS
ANGOLA *+      SUNNY     72  48  43 CALM      30.32F
AUBURN +       SUNNY     70  45  40 CALM      30.33F
FORT WAYNE     SUNNY     69  49  48 NE3       30.33F
HUNTINGTON +   SUNNY     69  50  51 CALM      30.32F

$$

INZ028-029-035-036-043>045-051>053-232100-
WEST CENTRAL INDIANA

CITY           SKY/WX    TMP DP  RH WIND       PRES   REMARKS
GREENCASTLE +  SUNNY     70  46  43 E6        30.31F
LAFAYETTE      SUNNY     71  49  45 NE7       30.30F
TERRE HAUTE    SUNNY     71  48  43 N7        30.30F

$$

INZ030>032-037>040-046>048-054>057-064-065-232100-
CENTRAL INDIANA

CITY           SKY/WX    TMP DP  RH WIND       PRES   REMARKS
ANDERSON       SUNNY     70  45  40 CALM      30.33F
CP ATTERBURY + SUNNY     72  43  35 CALM      30.30F
COLUMBUS       SUNNY     72  41  33 CALM      30.30F
FRANKFORT +    SUNNY     73  45  35 CALM      30.32F
GREENWOOD *+   SUNNY     72  48  43 E3        30.31
INDIANAPOLIS   SUNNY     70  45  40 NE3       30.30F
-EAGLE CREEK   SUNNY     71  45  39 NW5       30.30F
KOKOMO *+      SUNNY     72  48  43 E3        30.31F
MARION +       SUNNY     69  46  43 SE3       30.32F
MT COMFORT *+  SUNNY     72  32  23 CALM      30.31F
SHELBYVILLE    SUNNY     74  44  34 E7        30.30F
ZIONSVILLE +   SUNNY     71  46  40 E5        30.31F

$$

INZ033-034-041-042-049-050-058-059-232100-
EAST CENTRAL INDIANA

CITY           SKY/WX    TMP DP  RH WIND       PRES   REMARKS
MUNCIE         SUNNY     70  44  39 VRB3      30.32F

$$

INZ060-061-067>069-081>083-085>088-232100-
SOUTHWEST INDIANA

CITY           SKY/WX    TMP DP  RH WIND       PRES   REMARKS
EVANSVILLE     SUNNY     73  44  35 VRB7      30.28F
WASHINGTON +   SUNNY     72  46  39 NE9       30.28F

$$

INZ062-063-066-070>080-084-089>092-232100-
SOUTH CENTRAL AND SOUTHEAST INDIANA

CITY           SKY/WX    TMP DP  RH WIND       PRES   REMARKS
BEDFORD +      SUNNY     70  43  37 CALM      30.30F
BLOOMINGTON    SUNNY     70  46  42 NE7       30.31F
NORTH VERNON + SUNNY     73  39  29 E5        30.31F HAZE
SEYMOUR +      SUNNY     73  46  38 NE5       30.29

$$




USA.gov is the U.S. government's official web portal to all federal, state and local government web resources and services.